SCP
0 0 0 0 1 1 1 1 1 0 0 0 0 0 0 0 0 0 0 0 0 0 0 0 0 0 0 0 0 0 0 0
0 0 0 0 0 1 1 1 1 1 1 0 0 0 0 0 0 0 0 0 0 0 0 0 0 0 0 0 0 0 0 0
0 0 0 0 0 0 1 1 1 1 1 1 0 0 0 0 0 0 0 0 0 0 0 0 0 0 0 0 0 0 0 0
0 0 0 0 0 0 0 0 1 1 1 1 0 0 0 0 0 0 0 0 0 0 0 0 0 0 0 0 0 0 0 0
0 0 0 0 0 0 0 0 0 1 1 0 0 0 0 0 0 0 0 0 0 0 0 0 0 0 0 0 0 0 0 0
0 0 0 0 0 0 0 0 0 1 1 1 0 0 0 0 1 0 0 0 0 0 0 0 0 0 0 0 0 0 0 0
0 -0 0 0 0 0 0 0 0 1 1 1 1 0 1 1 0 0 1 0 0 0 0 0 0 0 0 0 0 0 0 0
0 0 0 0 0 0 0 0 0 0 0 1 0 0 0 0 0 1 0 0 0 0 0 0 0 0 0 0 0 0 0 0
0 0 0 0 0 0 0 0 0 0 0 0 0 0 0 0 0 0 0 0 0 0 0 0 0 0 0 0 0 0 0 0
0 0 0 0 0 0 0 0 0 0 0 0 0 0 0 0 0 0 0 0 0 0 0 0 0 0 0 0 0 0 0 0
0 0 0 0 0 0 0 0 0 0 0 0 0 0 0 0 0 0 0 0 0 0 0 0 0 0 0 0 0 0 0 0
0 0 0 0 0 0 0 0 0 0 0 0 0 0 0 0 0 0 0 0 0 0 0 0 0 0 0 0 0 0 0 0
0 0 0 0 0 0 0 0 0 0 0 0 0 0 0 0 0 0 0 0 0 0 0 0 0 0 0 0 0 0 0 0
0 0 0 0 0 0 0 0 0 0 0 0 0 0 0 0 0 0 0 0 0 0 0 0 0 0 0 0 0 0 0 0
0 0 0 0 0 0 0 0 0 0 0 0 0 0 0 0 0 0 0 0 0 0 0 0 0 0 0 0 0 0 0 0
0 0 0 0 0 0 0 0 0 0 0 0 0 0 0 0 0 0 0 0 0 0 0 0 0 0 0 0 0 0 0 0
0 0 0 0 0 0 0 0 0 0 0 0 0 0 0 0 0 0 0 0 0 0 0 0 0 0 0 0 0 0 0 0
0 0 0 0 0 0 0 0 0 0 0 0 0 0 0 0 0 0 0 0 0 0 0 0 0 0 0 0 0 0 0 0
0 -0 -0 0 0 0 0 0 0 0 0 0 0 0 0 0 0 0 0 0 0 0 0 0 0 0 0 0 0 0 0 0
Wind_Speed_500mb
26 17 25 46 61 71 71 75 76 77 76 72 73 66 62 60 53 50 47 46 38 35 41 46 46 40 33 27 23 26 27 21
34 21 5 36 49 62 67 76 78 76 83 85 83 71 67 59 54 56 52 51 44 38 45 53 51 45 35 32 29 28 32 30
48 32 14 12 33 49 62 68 75 83 89 89 84 74 71 53 56 62 58 55 51 45 46 56 55 50 45 41 37 34 39 35
58 52 36 22 16 38 54 65 84 79 85 87 86 72 67 63 65 64 63 59 57 53 46 50 55 53 50 42 41 38 37 39
54 55 49 43 26 22 37 59 70 81 86 87 90 83 77 72 75 71 66 66 62 59 55 54 53 54 54 49 43 43 40 41
51 52 52 48 38 25 26 44 58 68 81 85 95 87 86 81 76 80 71 67 67 63 62 61 63 62 54 49 48 49 47 46
47 47 43 43 33 19 27 33 48 68 67 81 95 90 85 79 79 72 65 73 72 73 70 66 65 65 63 53 51 50 49 49
50 51 47 43 36 22 4 31 48 59 59 77 74 88 83 87 80 69 68 75 77 80 81 75 72 70 62 54 52 55 54 56
48 46 45 40 36 27 9 10 35 51 68 65 71 87 80 92 75 78 70 75 87 84 82 76 70 72 66 61 57 55 57 57
48 44 41 39 32 27 16 2 20 37 57 59 42 67 70 71 63 79 75 89 93 87 84 77 79 74 60 54 58 56 54 56
47 43 42 35 31 27 20 11 15 26 39 47 43 32 28 58 72 75 80 66 37 52 57 77 75 75 62 56 54 59 58 59
50 46 40 35 31 26 22 11 7 22 29 41 40 37 34 33 29 25 53 64 60 53 49 61 31 50 52 53 54 57 61 59
48 42 39 34 35 27 17 11 9 9 22 27 28 27 33 33 29 30 35 36 52 41 44 44 53 18 33 54 57 57 61 66
52 40 39 34 35 26 20 13 7 12 20 23 21 20 23 27 33 38 44 45 47 41 34 42 49 43 40 50 50 48 52 53
50 41 39 38 31 29 22 17 12 11 16 21 19 21 22 24 28 36 41 42 43 39 40 42 38 42 41 42 43 48 51 52
45 42 38 39 39 33 25 19 10 6 14 17 22 24 26 31 32 34 37 38 40 42 47 47 49 42 42 47 50 53 55 56
37 40 37 35 37 39 38 30 16 11 12 18 24 28 28 31 35 36 38 38 40 43 46 49 50 51 52 52 53 54 61 56
40 40 41 43 42 39 37 33 23 15 12 14 17 21 25 27 29 31 34 34 37 41 46 51 52 51 62 62 56 59 56 60
42 42 41 42 42 37 36 30 26 21 17 13 14 17 20 21 23 24 26 28 32 37 40 42 42 56 66 70 71 66 63 63
Wind_Direction_500mb
352 319 253 227 227 225 225 223 225 220 218 226 224 222 219 214 205 204 202 203 203 204 205 204 204 205 206 213 219 214 212 218
354 346 334 221 227 239 234 228 226 220 218 225 222 220 219 221 210 210 208 207 208 208 206 204 207 211 215 218 220 218 216 220
353 348 348 193 216 217 239 236 230 224 221 227 229 222 224 228 221 216 213 213 214 213 212 210 212 216 219 222 221 220 218 222
352 345 334 320 236 226 219 215 230 231 222 223 228 225 229 224 228 224 217 216 216 216 215 216 218 222 227 229 228 226 226 225
351 347 334 324 300 266 232 229 227 229 229 225 227 226 219 224 224 227 222 221 221 221 218 218 221 224 228 231 231 232 231 230
347 344 336 327 314 292 240 227 228 230 233 236 233 227 227 225 220 228 226 224 224 226 227 226 223 225 228 231 232 233 234 237
340 340 329 324 314 318 235 233 225 230 240 244 235 235 228 226 225 228 229 232 224 227 228 229 232 231 230 232 234 238 239 243
336 340 335 325 315 310 297 217 230 233 235 245 244 239 231 234 235 236 241 240 235 228 229 227 234 233 230 231 238 239 241 245
334 334 335 329 315 311 310 160 188 217 215 216 229 232 233 239 230 234 243 241 246 240 236 234 232 238 229 227 234 241 243 247
332 329 331 330 315 305 306 193 159 188 210 224 219 219 212 216 230 243 250 245 245 253 251 239 238 234 233 232 234 239 246 249
331 330 328 320 322 301 299 286 163 165 193 213 215 206 198 211 220 232 242 256 252 260 263 252 241 233 235 234 238 245 247 254
329 332 327 321 322 308 294 285 209 166 189 201 214 214 212 214 240 225 227 244 262 265 257 251 256 231 236 239 244 248 253 258
331 332 334 330 322 321 310 293 233 201 193 199 205 207 214 216 213 209 220 233 234 251 249 248 263 252 253 247 244 243 251 256
337 339 342 344 327 326 325 310 241 231 195 214 215 215 217 212 213 217 219 227 228 225 225 235 254 273 259 247 242 243 253 258
339 344 350 343 339 343 331 328 281 195 204 206 210 218 224 224 226 229 232 235 235 231 231 231 245 252 257 252 253 258 258 258
339 342 351 337 353 351 349 331 2 269 237 242 238 235 238 241 238 235 237 239 243 243 245 245 248 252 256 260 262 262 265 268
340 341 349 352 349 350 1 1 343 306 279 258 253 254 248 244 244 245 244 242 242 245 249 250 250 252 252 255 258 260 263 268
348 347 350 6 6 5 14 10 2 341 307 287 280 277 271 269 261 253 252 254 257 259 256 253 253 253 253 256 255 253 258 264
352 354 1 8 11 18 21 14 32 27 19 352 320 296 289 285 277 266 260 259 264 267 267 267 267 259 258 257 260 265 270 270
Wind_Speed_850mb
26 17 25 46 61 71 71 75 76 77 76 72 73 66 62 60 53 50 47 46 38 35 41 46 46 40 33 27 23 26 27 21
34 21 5 36 49 62 67 76 78 76 83 85 83 71 67 59 54 56 52 51 44 38 45 53 51 45 35 32 29 28 32 30
48 32 14 12 33 49 62 68 75 83 89 89 84 74 71 53 56 62 58 55 51 45 46 56 55 50 45 41 37 34 39 35
58 52 36 22 16 38 54 65 84 79 85 87 86 72 67 63 65 64 63 59 57 53 46 50 55 53 50 42 41 38 37 39
54 55 49 43 26 22 37 59 70 81 86 87 90 83 77 72 75 71 66 66 62 59 55 54 53 54 54 49 43 43 40 41
51 52 52 48 38 25 26 44 58 68 81 85 95 87 86 81 76 80 71 67 67 63 62 61 63 62 54 49 48 49 47 46
47 47 43 43 33 19 27 33 48 68 67 81 95 90 85 79 79 72 65 73 72 73 70 66 65 65 63 53 51 50 49 49
50 51 47 43 36 22 4 31 48 59 59 77 74 88 83 87 80 69 68 75 77 80 81 75 72 70 62 54 52 55 54 56
48 46 45 40 36 27 9 10 35 51 68 65 71 87 80 92 75 78 70 75 87 84 82 76 70 72 66 61 57 55 57 57
48 44 41 39 32 27 16 2 20 37 57 59 42 67 70 71 63 79 75 89 93 87 84 77 79 74 60 54 58 56 54 56
47 43 42 35 31 27 20 11 15 26 39 47 43 32 28 58 72 75 80 66 37 52 57 77 75 75 62 56 54 59 58 59
50 46 40 35 31 26 22 11 7 22 29 41 40 37 34 33 29 25 53 64 60 53 49 61 31 50 52 53 54 57 61 59
48 42 39 34 35 27 17 11 9 9 22 27 28 27 33 33 29 30 35 36 52 41 44 44 53 18 33 54 57 57 61 66
52 40 39 34 35 26 20 13 7 12 20 23 21 20 23 27 33 38 44 45 47 41 34 42 49 43 40 50 50 48 52 53
50 41 39 38 31 29 22 17 12 11 16 21 19 21 22 24 28 36 41 42 43 39 40 42 38 42 41 42 43 48 51 52
45 42 38 39 39 33 25 19 10 6 14 17 22 24 26 31 32 34 37 38 40 42 47 47 49 42 42 47 50 53 55 56
37 40 37 35 37 39 38 30 16 11 12 18 24 28 28 31 35 36 38 38 40 43 46 49 50 51 52 52 53 54 61 56
40 40 41 43 42 39 37 33 23 15 12 14 17 21 25 27 29 31 34 34 37 41 46 51 52 51 62 62 56 59 56 60
42 42 41 42 42 37 36 30 26 21 17 13 14 17 20 21 23 24 26 28 32 37 40 42 42 56 66 70 71 66 63 63
Wind_Direction_850mb
352 319 253 227 227 225 225 223 225 220 218 226 224 222 219 214 205 204 202 203 203 204 205 204 204 205 206 213 219 214 212 218
354 346 334 221 227 239 234 228 226 220 218 225 222 220 219 221 210 210 208 207 208 208 206 204 207 211 215 218 220 218 216 220
353 348 348 193 216 217 239 236 230 224 221 227 229 222 224 228 221 216 213 213 214 213 212 210 212 216 219 222 221 220 218 222
352 345 334 320 236 226 219 215 230 231 222 223 228 225 229 224 228 224 217 216 216 216 215 216 218 222 227 229 228 226 226 225
351 347 334 324 300 266 232 229 227 229 229 225 227 226 219 224 224 227 222 221 221 221 218 218 221 224 228 231 231 232 231 230
347 344 336 327 314 292 240 227 228 230 233 236 233 227 227 225 220 228 226 224 224 226 227 226 223 225 228 231 232 233 234 237
340 340 329 324 314 318 235 233 225 230 240 244 235 235 228 226 225 228 229 232 224 227 228 229 232 231 230 232 234 238 239 243
336 340 335 325 315 310 297 217 230 233 235 245 244 239 231 234 235 236 241 240 235 228 229 227 234 233 230 231 238 239 241 245
334 334 335 329 315 311 310 160 188 217 215 216 229 232 233 239 230 234 243 241 246 240 236 234 232 238 229 227 234 241 243 247
332 329 331 330 315 305 306 193 159 188 210 224 219 219 212 216 230 243 250 245 245 253 251 239 238 234 233 232 234 239 246 249
331 330 328 320 322 301 299 286 163 165 193 213 215 206 198 211 220 232 242 256 252 260 263 252 241 233 235 234 238 245 247 254
329 332 327 321 322 308 294 285 209 166 189 201 214 214 212 214 240 225 227 244 262 265 257 251 256 231 236 239 244 248 253 258
331 332 334 330 322 321 310 293 233 201 193 199 205 207 214 216 213 209 220 233 234 251 249 248 263 252 253 247 244 243 251 256
337 339 342 344 327 326 325 310 241 231 195 214 215 215 217 212 213 217 219 227 228 225 225 235 254 273 259 247 242 243 253 258
339 344 350 343 339 343 331 328 281 195 204 206 210 218 224 224 226 229 232 235 235 231 231 231 245 252 257 252 253 258 258 258
339 342 351 337 353 351 349 331 2 269 237 242 238 235 238 241 238 235 237 239 243 243 245 245 248 252 256 260 262 262 265 268
340 341 349 352 349 350 1 1 343 306 279 258 253 254 248 244 244 245 244 242 242 245 249 250 250 252 252 255 258 260 263 268
348 347 350 6 6 5 14 10 2 341 307 287 280 277 271 269 261 253 252 254 257 259 256 253 253 253 253 256 255 253 258 264
352 354 1 8 11 18 21 14 32 27 19 352 320 296 289 285 277 266 260 259 264 267 267 267 267 259 258 257 260 265 270 270